Regional Weather Roundup
Issued by NWS

Home | Current Version | Previous Version | Graphics & Text | Print | Product List | Glossary On
Versions: 1 2 3 4 5 6 7 8 9 10 11 12 13 14 15 16 17 18 19 20 21 22 23 24 25 26 27 28 29 30 31 32 33 34 35 36 37 38 39 40 41 42 43 44 45 46 47 48 49 50
000
ASUS43 KBIS 250801
RWRND

NORTH DAKOTA REGIONAL WEATHER ROUNDUP
NATIONAL WEATHER SERVICE BISMARCK ND
300 AM CDT SAT APR 25 2015

NOTE: "FAIR" INDICATES FEW OR NO CLOUDS BELOW 12,000 FEET WITH NO
SIGNIFICANT WEATHER AND/OR OBSTRUCTIONS TO VISIBILITY.


NDZ001>003-009>011-017-250900-
NORTHWEST NORTH DAKOTA

CITY           SKY/WX    TMP DP  RH WIND       PRES   REMARKS
WILLISTON      MOCLDY    49  37  63 E8        29.66R
MINOT          CLEAR     37  34  89 E6        29.75R FOG
MINOT AFB      CLEAR     38  38 100 SE14      29.74R
$$

NDZ018>021-031>035-040>046-250900-
SOUTHWEST NORTH DAKOTA

CITY           SKY/WX    TMP DP  RH WIND       PRES   REMARKS
BISMARCK       CLOUDY    43  41  93 E7        29.72F
DICKINSON      CLEAR     42  38  85 E8        29.66R
GARRISON         N/A     41  39  93 E8        29.73R
HETTINGER ARPT CLEAR     40  37  89 E6        29.68R
$$

NDZ004>008-012>016-024-026-027-054-250900-
NORTHEAST NORTH DAKOTA

CITY           SKY/WX    TMP DP  RH WIND       PRES   REMARKS
GRAND FORKS    CLOUDY    45  33  63 E7        29.82S
GRND FRKS AFB  CLOUDY    44  34  67 E8        29.81F
DEVILS LAKE    CLOUDY    45  36  70 SE12      29.78S
$$

NDZ022-023-025-028>030-036>039-047>053-250900-
SOUTHEAST NORTH DAKOTA

CITY           SKY/WX    TMP DP  RH WIND       PRES   REMARKS
FARGO          CLOUDY    44  36  73 E9        29.78F
JAMESTOWN      CLOUDY    42  41  96 E12       29.75S FOG
$$




USA.gov is the U.S. government's official web portal to all federal, state and local government web resources and services.